• In Hungary
  • List of Countries
  • For 7 days
  • Water Temperature
  • Satellite Maps
  • Weather Map
  • News
  • Weather Widgets
  • user-avatar
    Login

    Hourly Weather Ivanovka Vtoraya

    Today, 24 September, Monday

    Time Temperature Precipitation Wind Pressure Humidity
    00:00 +18°C° 0 mm 3 mps 754 mmHg 65%
    01:00 +17°C° 0 mm 3 mps 753 mmHg 64%
    02:00 +17°C° 0 mm 3 mps 753 mmHg 61%
    03:00 +16°C° 0 mm 3 mps 753 mmHg 58%
    04:00 +14°C° 0 mm 3 mps 753 mmHg 56%
    05:00 +14°C° 0 mm 3 mps 753 mmHg 55%
    06:00 +14°C° 0 mm 3 mps 753 mmHg 54%
    07:00 +14°C° 0 mm 3 mps 753 mmHg 53%
    08:00 +17°C° 0 mm 4 mps 753 mmHg 47%
    09:00 +19°C° 0 mm 5 mps 753 mmHg 41%
    10:00 +21°C° 0 mm 6 mps 752 mmHg 35%
    11:00 +22°C° 0 mm 7 mps 752 mmHg 33%
    12:00 +22°C° 0 mm 7 mps 752 mmHg 32%
    13:00 +23°C° 0 mm 7 mps 752 mmHg 31%
    14:00 +23°C° 0 mm 7 mps 752 mmHg 31%
    15:00 +23°C° 0 mm 7 mps 751 mmHg 32%
    16:00 +24°C° 0 mm 6 mps 751 mmHg 33%
    17:00 +22°C° 0 mm 5 mps 751 mmHg 38%
    18:00 +20°C° 0 mm 4 mps 751 mmHg 42%
    19:00 +19°C° 0 mm 3 mps 751 mmHg 46%
    20:00 +18°C° 0 mm 3 mps 751 mmHg 50%
    21:00 +17°C° 0 mm 2 mps 751 mmHg 53%
    22:00 +16°C° 0 mm 2 mps 751 mmHg 57%
    23:00 +16°C° 0 mm 2 mps 751 mmHg 57%

    Tomorrow, 25 September, Tuesday

    Time Temperature Precipitation Wind Pressure Humidity
    00:00 +16°C° 0 mm 2 mps 751 mmHg 58%
    01:00 +16°C° 0 mm 2 mps 751 mmHg 58%
    02:00 +15°C° 0 mm 2 mps 751 mmHg 59%
    03:00 +14°C° 0 mm 3 mps 751 mmHg 59%
    04:00 +14°C° 0 mm 3 mps 751 mmHg 60%
    05:00 +13°C° 0 mm 3 mps 751 mmHg 64%
    06:00 +13°C° 0 mm 3 mps 751 mmHg 68%
    07:00 +13°C° 0 mm 3 mps 751 mmHg 73%
    08:00 +14°C° 0 mm 4 mps 751 mmHg 70%
    09:00 +17°C° 0 mm 4 mps 751 mmHg 67%
    10:00 +19°C° 0 mm 5 mps 752 mmHg 64%
    11:00 +19°C° 0 mm 6 mps 751 mmHg 57%
    12:00 +20°C° 0 mm 6 mps 751 mmHg 50%
    13:00 +21°C° 0 mm 7 mps 751 mmHg 43%
    14:00 +21°C° 0 mm 7 mps 751 mmHg 42%
    15:00 +21°C° 0 mm 7 mps 751 mmHg 40%
    16:00 +21°C° 0 mm 7 mps 751 mmHg 38%
    17:00 +20°C° 0 mm 6 mps 751 mmHg 42%
    18:00 +17°C° 0 mm 5 mps 751 mmHg 45%
    19:00 +17°C° 0 mm 3 mps 751 mmHg 49%
    20:00 +16°C° 0 mm 3 mps 752 mmHg 50%
    21:00 +16°C° 0 mm 3 mps 752 mmHg 52%
    22:00 +15°C° 0 mm 4 mps 752 mmHg 54%
    23:00 +14°C° 0 mm 4 mps 752 mmHg 54%

    Day after tomorrow, 26 September, Wednesday

    Time Temperature Precipitation Wind Pressure Humidity
    00:00 +14°C° 0 mm 4 mps 752 mmHg 55%
    01:00 +14°C° 0 mm 4 mps 752 mmHg 56%
    02:00 +14°C° 0 mm 4 mps 752 mmHg 54%
    03:00 +14°C° 0 mm 5 mps 752 mmHg 52%
    04:00 +14°C° 0 mm 5 mps 752 mmHg 50%
    05:00 +14°C° 0 mm 5 mps 752 mmHg 50%
    06:00 +14°C° 0 mm 5 mps 752 mmHg 50%
    07:00 +14°C° 0 mm 5 mps 753 mmHg 49%
    08:00 +15°C° 0 mm 5 mps 753 mmHg 47%
    09:00 +16°C° 0 mm 5 mps 753 mmHg 44%
    10:00 +19°C° 0 mm 5 mps 754 mmHg 41%
    11:00 +19°C° 0 mm 4 mps 754 mmHg 45%
    12:00 +19°C° 0 mm 4 mps 754 mmHg 49%
    13:00 +19°C° 0 mm 4 mps 755 mmHg 52%
    14:00 +18°C° 0.3 mm 4 mps 755 mmHg 60%
    15:00 +17°C° 0.3 mm 4 mps 755 mmHg 67%
    16:00 +14°C° 0.3 mm 4 mps 755 mmHg 75%
    17:00 +13°C° 0.2 mm 4 mps 755 mmHg 78%
    18:00 +13°C° 0.2 mm 4 mps 755 mmHg 82%
    19:00 +12°C° 0.2 mm 3 mps 755 mmHg 85%
    20:00 +11°C° 0.2 mm 4 mps 755 mmHg 85%
    21:00 +11°C° 0.2 mm 4 mps 756 mmHg 84%
    22:00 +11°C° 0.2 mm 4 mps 756 mmHg 84%
    23:00 +10°C° 0.7 mm 3 mps 756 mmHg 85%

    27 September, Thursday

    Time Temperature Precipitation Wind Pressure Humidity
    00:00 +10°C° 0.7 mm 3 mps 756 mmHg 86%
    01:00 +10°C° 0.7 mm 3 mps 756 mmHg 87%
    02:00 +10°C° 0.9 mm 2 mps 756 mmHg 88%
    03:00 +9°C° 0.9 mm 2 mps 756 mmHg 89%
    04:00 +9°C° 0.9 mm 2 mps 756 mmHg 90%
    05:00 +9°C° 0 mm 2 mps 756 mmHg 91%
    06:00 +8°C° 0 mm 2 mps 756 mmHg 92%
    07:00 +8°C° 0 mm 2 mps 756 mmHg 93%
    08:00 +9°C° 0 mm 3 mps 756 mmHg 86%
    09:00 +10°C° 0 mm 3 mps 756 mmHg 79%
    10:00 +11°C° 0 mm 3 mps 756 mmHg 72%
    11:00 +11°C° 0 mm 4 mps 756 mmHg 68%
    12:00 +11°C° 0 mm 4 mps 756 mmHg 65%
    13:00 +11°C° 0 mm 4 mps 755 mmHg 61%
    14:00 +11°C° 0 mm 4 mps 755 mmHg 58%
    15:00 +12°C° 0 mm 4 mps 755 mmHg 54%
    16:00 +12°C° 0 mm 5 mps 754 mmHg 51%
    17:00 +12°C° 0 mm 4 mps 754 mmHg 54%
    18:00 +11°C° 0 mm 4 mps 754 mmHg 58%
    19:00 +10°C° 0 mm 4 mps 753 mmHg 61%
    20:00 +10°C° 0 mm 4 mps 753 mmHg 61%
    21:00 +10°C° 0 mm 4 mps 753 mmHg 60%
    22:00 +9°C° 0 mm 5 mps 752 mmHg 60%
    23:00 +9°C° 0 mm 5 mps 752 mmHg 59%

    28 September, Friday

    Time Temperature Precipitation Wind Pressure Humidity
    00:00 +9°C° 0 mm 5 mps 751 mmHg 58%
    01:00 +9°C° 0 mm 6 mps 751 mmHg 57%
    02:00 +9°C° 0.1 mm 6 mps 750 mmHg 59%
    03:00 +8°C° 0.1 mm 6 mps 750 mmHg 61%
    04:00 +8°C° 0.1 mm 7 mps 750 mmHg 63%
    05:00 +8°C° 0 mm 7 mps 750 mmHg 65%
    06:00 +7°C° 0 mm 6 mps 750 mmHg 66%
    07:00 +7°C° 0 mm 6 mps 750 mmHg 68%
    08:00 +8°C° 0 mm 6 mps 750 mmHg 68%
    09:00 +8°C° 0 mm 6 mps 750 mmHg 67%
    10:00 +9°C° 0 mm 7 mps 751 mmHg 67%
    11:00 +10°C° 0 mm 6 mps 751 mmHg 63%
    12:00 +10°C° 0 mm 6 mps 751 mmHg 60%
    13:00 +11°C° 0 mm 6 mps 751 mmHg 56%
    14:00 +13°C° 0 mm 6 mps 752 mmHg 53%
    15:00 +13°C° 0 mm 6 mps 752 mmHg 49%
    16:00 +14°C° 0 mm 6 mps 752 mmHg 45%
    17:00 +13°C° 0 mm 5 mps 752 mmHg 50%
    18:00 +11°C° 0 mm 4 mps 752 mmHg 54%
    19:00 +10°C° 0 mm 3 mps 752 mmHg 58%
    20:00 +10°C° 0 mm 4 mps 752 mmHg 59%
    21:00 +10°C° 0 mm 4 mps 751 mmHg 60%
    22:00 +9°C° 0 mm 5 mps 751 mmHg 61%
    23:00 +9°C° 0 mm 5 mps 751 mmHg 61%

    29 September, Saturday

    Time Temperature Precipitation Wind Pressure Humidity
    00:00 +9°C° 0 mm 6 mps 750 mmHg 62%
    01:00 +9°C° 0 mm 7 mps 750 mmHg 62%
    02:00 +10°C° 0 mm 7 mps 750 mmHg 64%
    03:00 +10°C° 0 mm 8 mps 749 mmHg 66%
    04:00 +10°C° 0 mm 8 mps 749 mmHg 68%
    05:00 +10°C° 0 mm 8 mps 749 mmHg 69%
    06:00 +11°C° 0 mm 9 mps 749 mmHg 69%
    07:00 +11°C° 0 mm 9 mps 749 mmHg 69%
    08:00 +11°C° 0.2 mm 8 mps 750 mmHg 71%
    09:00 +11°C° 0.2 mm 7 mps 751 mmHg 73%
    10:00 +11°C° 0.2 mm 6 mps 752 mmHg 74%
    11:00 +13°C° 0 mm 5 mps 752 mmHg 65%
    12:00 +13°C° 0 mm 5 mps 753 mmHg 56%
    13:00 +14°C° 0 mm 4 mps 754 mmHg 48%
    14:00 +14°C° 0 mm 4 mps 754 mmHg 45%
    15:00 +14°C° 0 mm 3 mps 754 mmHg 42%
    16:00 +15°C° 0 mm 2 mps 755 mmHg 39%
    17:00 +14°C° 0 mm 2 mps 755 mmHg 43%
    18:00 +13°C° 0 mm 2 mps 755 mmHg 48%
    19:00 +11°C° 0 mm 1 mps 755 mmHg 52%
    20:00 +10°C° 0 mm 2 mps 756 mmHg 55%
    21:00 +9°C° 0 mm 2 mps 756 mmHg 57%
    22:00 +9°C° 0 mm 2 mps 756 mmHg 59%
    23:00 +9°C° 0.1 mm 2 mps 756 mmHg 60%
    Show more